Weather History for Millville, NJ

Change the Weather History Date:

Tuesday, November 20, 2012

  Actual Average Record
Temperature  
Mean Temperature 46 °F -  
Max Temperature 52 °F 55 °F 74 °F (1985)
Min Temperature 39 °F 35 °F 19 °F (2000)
Degree Days  
Heating Degree Days 20    
Moisture  
Dew Point 37 °F    
Average Humidity 71    
Maximum Humidity 87    
Minimum Humidity 40    
Precipitation  
Precipitation 0.00 in - - ()
Sea Level Pressure  
Sea Level Pressure 30.16 in    
Wind  
Wind Speed 6 mph (NE)    
Max Wind Speed 9 mph    
Max Gust Speed -    
Visibility 10 miles    
Events      
Averages and records for this station are not official NWS values.
T = Trace of Precipitation, MM = Missing Value Source: NWS Daily Summary

Daily Weather History Graph

Daily Weather History Graph

Search for Another Location

Airport:

Trip Planner

Search our weather history database for the weather conditions in past years. The results will help you decide how hot, cold, wet, or windy it might be!

Date:

Astronomy

Nov. 20, 2012 Rise Set
Actual Time 6:50 AM EST 4:41 PM EST
Civil Twilight 6:21 AM EST 5:10 PM EST
Nautical Twilight 5:48 AM EST 5:43 PM EST
Astronomical Twilight 5:16 AM EST 6:15 PM EST
Moon 12:24 PM EST (11/20) No Moon Set
Length of Visible Light 10h 49m
Length of Day
9h 51m
Waxing Crescent, 51% of the Moon is Illuminated
Nov 20
Waxing Crescent
Nov 28
Full
Dec 6
Last Quarter
Dec 13
New
Dec 20
First Quarter

Hourly Weather History & Observations

Time (EST) Temp. Windchill Dew Point Humidity Pressure Visibility Wind Dir Wind Speed Gust Speed Precip Events Conditions
12:54 AM 46.9 °F - 42.1 °F 83% 30.20 in 10.0 mi NE 5.8 mph - N/A   Overcast
1:52 AM 46.4 °F 43.5 °F 42.8 °F 87% 30.19 in 10.0 mi NE 5.8 mph - N/A   Overcast
1:54 AM 46.9 °F - 42.1 °F 83% 30.19 in 10.0 mi NE 5.8 mph - N/A   Overcast
2:34 AM 46.4 °F 42.9 °F 42.8 °F 87% 30.19 in 10.0 mi NE 6.9 mph - N/A   Overcast
2:54 AM 46.0 °F 42.5 °F 42.1 °F 86% 30.19 in 10.0 mi NE 6.9 mph - N/A   Overcast
3:16 AM 46.4 °F 42.4 °F 42.8 °F 87% 30.19 in 10.0 mi NE 8.1 mph - N/A   Overcast
3:54 AM 46.0 °F 42.5 °F 41.0 °F 83% 30.18 in 10.0 mi NE 6.9 mph - N/A   Overcast
4:54 AM 46.0 °F 43.1 °F 39.9 °F 79% 30.19 in 10.0 mi NE 5.8 mph - N/A   Overcast
5:17 AM 44.6 °F 40.2 °F 39.2 °F 81% 30.19 in 10.0 mi NE 8.1 mph - N/A   Overcast
5:54 AM 45.0 °F 40.1 °F 39.0 °F 80% 30.18 in 10.0 mi NE 9.2 mph - N/A   Overcast
6:11 AM 44.6 °F 42.2 °F 39.2 °F 81% 30.18 in 10.0 mi NNE 4.6 mph - N/A   Overcast
6:37 AM 42.8 °F 39.3 °F 37.4 °F 81% 30.19 in 10.0 mi ENE 5.8 mph - N/A   Scattered Clouds
7:54 AM 44.1 °F 40.8 °F 37.9 °F 79% 30.19 in 10.0 mi NE 5.8 mph - N/A   Clear
8:54 AM 46.0 °F 42.5 °F 39.0 °F 76% 30.18 in 10.0 mi NE 6.9 mph - N/A   Clear
9:54 AM 48.0 °F - 37.9 °F 68% 30.17 in 10.0 mi NE 5.8 mph - N/A   Partly Cloudy
10:54 AM 50.0 °F - 36.0 °F 59% 30.16 in 10.0 mi Variable 4.6 mph - N/A   Clear
11:54 AM 52.0 °F - 34.0 °F 50% 30.13 in 10.0 mi North 8.1 mph - N/A   Clear
12:54 PM 52.0 °F - 30.9 °F 45% 30.12 in 10.0 mi NE 5.8 mph - N/A   Clear
1:54 PM 52.0 °F - 28.0 °F 40% 30.11 in 10.0 mi NNE 5.8 mph - N/A   Clear
2:54 PM 52.0 °F - 28.9 °F 41% 30.10 in 10.0 mi North 5.8 mph - N/A   Clear
3:54 PM 51.1 °F - 28.9 °F 43% 30.10 in 10.0 mi NNE 5.8 mph - N/A   Clear
4:54 PM 48.0 °F - 30.9 °F 52% 30.10 in 10.0 mi NE 4.6 mph - N/A   Clear
5:54 PM 45.0 °F 43.5 °F 32.0 °F 60% 30.11 in 10.0 mi North 3.5 mph - N/A   Clear
6:54 PM 46.0 °F 44.8 °F 30.9 °F 56% 30.12 in 10.0 mi NNE 3.5 mph - N/A   Clear
7:54 PM 45.0 °F 42.6 °F 34.0 °F 65% 30.13 in 10.0 mi NE 4.6 mph - N/A   Clear
8:54 PM 43.0 °F 41.3 °F 35.1 °F 74% 30.14 in 10.0 mi North 3.5 mph - N/A   Clear
9:54 PM 42.1 °F - 35.1 °F 76% 30.13 in 10.0 mi Calm Calm - N/A   Clear
10:54 PM 39.0 °F - 35.1 °F 86% 30.13 in 10.0 mi Calm Calm - N/A   Clear
11:54 PM 39.0 °F - 35.1 °F 86% 30.13 in 10.0 mi Calm Calm - N/A   Clear